User: anonymous   Login
Location: Newark
(34.1333°N, 7.9667°W)
Time: 10:17:24
(UTC+00:00)
Language:

A-11 Canister half - Orbit

View from above orbital plane
View from above orbital plane
View from above satellite
View from above satellite

Ground track
Ground track

The orbit data is extracted from the following two-line orbital elements,

1 00051U 60009C   21165.70800626 -.00000059  00000-0  25513-3 0  9999
2 00051  47.2140 306.6974 0108324 159.8909 200.6194 12.18276934708257
Epoch (UTC): 14 June 2021 16:59:31
Eccentricity: 0.0108324
inclination: 47.2140°
perigee height: 1513 km
apogee height: 1686 km
right ascension of ascending node: 306.6974°
argument of perigee: 159.8909°
revolutions per day: 12.18276934
mean anomaly at epoch: 200.6194°
orbit number at epoch: 70825

The dashed part of the orbit path shows where the satellite is in the earth's shadow,  

DLR